Theta_e
308 309 310 311 311 311 311 311 311 311 311 310 311 313 313 314 313 313 314 315 316 316 317 317 319 319 320 323 324 324 318 319 321 335 337 336 335 340 337 340 340 341 343 345 341
308 308 308 309 310 311 311 311 311 311 312 311 311 311 314 314 314 314 317 315 316 318 318 318 318 322 321 323 324 322 318 320 323 336 334 335 336 340 337 338 339 341 341 339 339
307 308 308 308 308 309 310 311 311 312 312 312 311 311 313 314 314 316 323 318 317 318 318 317 318 320 322 323 323 323 319 321 325 328 336 335 337 338 335 336 340 341 340 339 338
308 308 308 308 308 308 308 309 311 312 312 312 312 311 312 314 323 325 323 322 319 319 319 316 318 321 320 318 323 320 322 323 326 327 331 327 337 337 336 338 340 340 340 341 341
308 309 309 309 309 309 309 309 309 311 312 312 312 311 312 315 316 322 321 320 318 320 316 319 323 324 320 322 322 319 321 324 325 326 328 328 333 337 337 336 338 337 337 341 342
308 309 309 309 309 309 309 309 309 310 311 312 313 312 311 317 322 323 323 321 318 316 315 322 324 324 324 322 320 323 324 324 325 325 325 326 332 336 335 338 338 338 335 341 342
309 309 309 309 310 310 310 310 309 309 310 313 313 311 312 315 322 325 323 326 318 316 317 323 324 324 323 322 325 326 322 320 324 325 323 326 324 328 337 337 336 338 338 341 342
310 309 309 309 309 310 310 310 310 309 311 314 313 310 311 317 319 321 325 327 321 321 322 323 323 324 323 326 325 322 322 321 321 324 324 324 321 324 336 336 337 336 340 340 340
310 310 310 309 309 310 311 310 309 310 314 313 311 311 319 319 320 322 322 325 323 322 322 323 323 323 325 322 320 322 322 322 322 324 323 321 321 325 332 337 337 336 339 341 340
310 311 311 311 310 310 311 312 312 316 317 312 312 319 320 319 322 322 321 324 323 322 323 323 324 323 321 320 321 321 323 321 321 322 322 323 323 324 328 331 336 336 340 343 345
308 310 311 311 310 310 315 322 320 325 321 321 319 319 317 322 322 322 321 323 325 323 321 323 322 321 321 321 322 323 323 323 324 326 324 323 324 325 329 330 333 341 343 346 344
309 309 309 311 310 312 314 315 316 314 315 316 318 323 322 322 322 321 320 321 325 321 321 321 322 322 323 324 324 324 323 322 325 327 326 325 326 328 327 328 332 344 343 341 343
309 309 309 311 310 315 314 315 315 314 317 318 318 318 322 324 324 323 321 321 324 324 320 321 323 325 324 324 325 324 326 325 324 324 323 327 327 327 326 327 342 343 343 344 341
308 309 310 310 314 312 316 314 312 313 319 322 321 320 319 324 324 321 322 322 323 324 322 321 323 325 325 325 325 325 326 326 324 322 321 325 323 325 325 325 335 340 343 339 334
308 309 310 308 310 311 314 313 312 316 328 327 323 322 320 324 321 319 321 321 322 324 324 322 323 324 325 326 325 325 326 325 326 325 323 323 322 322 326 326 339 340 343 345 345
309 309 310 309 310 312 312 312 313 319 326 327 324 322 321 323 323 321 320 321 322 323 323 323 326 324 324 326 326 326 326 324 326 324 323 322 324 324 323 335 337 336 341 340 341
309 309 309 309 311 312 311 313 315 319 323 325 325 324 323 323 323 323 320 319 321 322 323 324 324 324 325 325 325 325 324 325 326 324 325 324 325 325 330 338 336 335 336 336 336
307 308 310 311 312 311 313 314 317 319 320 323 324 325 324 324 323 323 321 318 320 322 322 323 325 325 325 324 324 323 321 325 328 328 326 328 329 326 338 337 336 335 335 334 333
304 305 308 312 313 311 313 314 316 317 319 321 319 324 325 324 324 323 323 321 321 321 322 324 324 325 324 325 323 323 324 323 327 326 327 329 336 335 338 336 335 335 334 334 333
303 307 310 312 312 313 313 314 316 317 318 318 318 321 323 324 324 323 323 324 323 322 322 322 323 326 326 324 324 323 325 326 325 328 330 329 334 337 337 337 335 334 335 334 333
304 312 314 313 313 313 313 314 315 315 316 318 318 318 318 321 324 323 325 325 325 323 322 322 322 324 324 325 324 323 322 325 326 326 328 330 331 330 335 335 334 333 335 334 333
306 310 314 314 315 315 314 315 315 316 316 317 317 317 318 319 322 322 322 324 326 325 324 323 322 324 324 325 325 322 323 323 325 329 331 332 334 333 332 333 335 334 335 334 333
306 309 313 314 315 315 316 317 317 318 317 317 318 318 318 318 321 322 322 322 322 325 325 324 323 325 327 326 327 324 324 325 325 329 331 335 333 330 332 331 334 335 334 333 333
305 310 311 314 314 315 315 315 315 315 317 319 318 317 317 317 319 320 320 321 321 322 326 327 327 324 325 326 329 328 326 324 325 327 326 329 330 332 333 334 334 335 334 333 333
306 308 310 312 314 314 315 316 318 318 317 316 318 320 317 316 318 319 319 320 321 322 327 326 328 332 326 329 328 329 328 325 324 328 327 327 330 335 335 333 336 334 331 328 332
304 308 308 309 310 312 313 314 315 317 318 319 317 320 320 317 317 319 321 319 321 325 324 328 326 331 330 328 326 326 327 328 327 329 328 329 330 333 334 333 334 331 329 332 334
305 305 307 309 309 310 311 312 312 313 315 315 315 317 319 320 321 320 320 320 320 322 321 327 328 329 328 328 327 328 327 328 329 329 327 327 333 333 334 334 332 330 333 336 333
Wind_Speed
13 13 12 12 12 12 12 13 13 12 12 12 12 12 12 14 14 17 22 16 11 11 13 10 10 11 8 16 15 20 3 8 13 4 6 14 6 8 5 23 45 12 34 35 25
14 14 14 14 13 13 13 13 13 13 13 12 12 12 12 15 17 22 17 16 16 12 12 13 11 11 12 14 13 9 2 9 17 3 4 6 19 23 21 20 39 20 27 26 27
15 15 15 15 15 14 15 14 14 14 13 13 13 11 12 13 17 13 6 10 14 11 12 14 14 18 22 21 26 20 9 13 24 14 16 11 28 17 27 14 7 11 19 23 24
16 16 16 17 16 16 15 15 15 14 13 13 12 11 10 10 3 3 3 6 9 9 15 14 15 21 11 9 25 9 23 24 29 20 6 8 20 11 15 11 28 20 19 24 23
17 18 18 18 17 17 16 16 15 14 13 12 12 11 9 8 20 10 11 6 7 16 18 15 14 19 7 11 20 9 19 30 28 27 7 4 14 13 16 18 22 10 26 29 26
18 18 19 19 18 18 17 16 15 14 13 12 11 10 9 9 2 8 7 9 9 16 19 15 15 17 20 20 9 27 26 23 24 22 21 2 29 26 24 24 13 15 31 24 25
18 19 19 19 19 19 17 16 15 13 12 11 9 10 13 23 2 6 8 5 8 11 15 11 15 22 19 11 23 24 9 9 9 13 7 11 6 9 34 28 27 16 33 37 32
19 19 19 19 19 19 18 16 14 11 9 8 8 9 13 7 18 12 16 9 6 11 13 15 17 20 15 19 21 9 7 5 8 13 21 6 9 10 34 31 29 27 34 42 39
19 20 20 20 19 18 16 14 12 9 7 6 6 7 14 4 18 16 16 17 11 13 18 14 15 17 10 6 7 6 6 9 13 19 8 8 9 10 21 36 30 29 31 42 31
20 19 19 19 18 17 13 13 9 7 5 6 9 8 15 16 14 14 16 18 17 17 18 16 5 2 4 1 7 10 6 9 11 11 12 7 7 9 23 18 35 33 23 40 32
20 20 20 18 16 13 9 11 8 3 5 11 8 15 17 7 11 16 19 17 20 15 6 16 3 7 11 12 15 12 12 14 11 5 8 9 7 10 14 8 9 33 39 37 34
21 20 19 17 12 7 10 13 9 12 16 21 31 33 35 20 16 17 19 21 18 7 10 6 11 11 14 15 15 16 10 10 8 10 4 9 7 3 6 8 9 32 32 32 30
20 20 19 15 6 5 9 10 9 17 8 19 33 32 37 21 23 17 19 26 10 8 9 11 11 18 17 16 13 10 3 8 8 12 6 4 1 3 11 14 30 34 30 26 24
19 19 18 15 3 8 3 9 13 14 4 8 9 12 29 28 23 21 23 22 12 12 11 9 21 17 15 13 11 5 4 8 12 7 4 3 5 6 8 10 15 26 37 39 36
19 18 14 15 12 10 8 12 16 6 4 5 12 6 18 22 3 27 25 27 15 12 8 14 14 11 16 10 9 7 5 6 8 9 4 12 2 8 5 10 11 23 36 39 36
20 17 18 9 13 4 5 12 5 0 7 5 7 8 10 25 28 6 26 24 25 11 13 11 23 16 18 11 9 5 6 7 4 3 3 10 3 10 7 9 9 22 33 37 37
23 19 18 17 5 6 7 5 2 4 8 6 7 7 9 13 17 19 11 11 11 10 16 15 17 15 16 9 5 5 1 2 3 3 7 7 6 15 7 15 17 22 31 34 29
21 20 19 20 11 8 2 2 5 9 12 12 15 10 12 10 15 16 11 14 12 11 3 11 12 17 12 10 8 7 9 6 6 5 6 7 6 9 11 22 25 28 32 29 27
22 17 21 16 9 11 3 4 6 7 9 9 20 11 7 8 11 16 16 13 14 17 15 5 18 15 15 6 10 9 6 9 4 6 3 4 4 5 14 14 21 25 29 28 27
21 18 13 7 10 10 3 4 6 11 15 13 10 11 11 11 7 10 14 12 15 17 22 14 12 17 11 16 12 11 7 4 1 5 5 7 4 4 10 11 11 14 24 27 29
11 10 7 13 17 16 5 6 9 23 24 7 7 14 18 18 14 12 7 15 12 15 17 15 8 23 12 5 14 4 5 3 4 6 6 3 5 8 14 15 14 19 28 34 30
5 4 10 14 5 7 8 7 8 19 29 17 16 15 15 19 15 11 15 12 23 24 17 11 10 8 17 20 9 11 11 10 5 5 3 6 5 1 13 18 29 30 34 34 31
4 10 10 11 4 7 14 18 24 18 18 18 15 15 17 17 8 5 13 24 33 14 17 11 6 8 10 9 6 8 8 7 5 5 7 5 5 6 7 6 13 24 26 24 26
5 3 9 18 18 9 10 13 16 20 22 22 20 20 18 16 10 13 18 16 34 31 31 26 7 13 13 11 5 3 6 7 7 4 5 6 5 3 4 12 21 36 36 32 23
4 7 8 2 8 9 10 10 14 15 21 28 10 15 17 15 15 16 16 20 27 32 7 8 8 7 11 13 14 8 9 11 9 7 8 9 9 9 10 15 28 43 38 29 34
6 7 12 18 14 11 9 8 14 15 14 15 13 17 18 15 17 13 10 14 14 9 8 8 4 7 8 13 18 15 15 11 9 7 6 9 6 7 13 29 31 35 30 36 34
8 8 9 8 6 6 7 10 15 19 15 17 18 17 19 16 34 38 27 25 13 6 11 6 3 5 7 7 8 14 17 15 9 9 7 9 6 9 7 9 22 29 34 31 30
Wind_Direction
352 347 344 342 337 334 330 327 324 321 316 313 308 301 298 291 284 276 265 262 252 236 257 278 269 281 271 268 274 283 315 280 275 287 223 208 99 48 21 355 343 170 147 152 149
347 343 341 338 334 330 325 322 320 318 314 310 305 299 298 293 289 273 281 252 228 231 254 256 254 251 244 262 261 225 247 256 268 187 223 228 126 136 94 354 295 68 126 143 149
343 341 338 336 333 328 323 319 316 314 311 308 303 296 294 298 307 285 283 236 224 225 262 250 249 262 247 256 261 261 241 261 275 265 193 211 153 146 131 184 195 255 144 157 160
339 337 336 333 331 328 323 318 313 310 307 304 299 292 286 290 251 26 356 300 225 226 255 232 245 264 260 255 265 272 269 268 268 282 205 343 171 111 142 203 157 262 191 166 183
336 334 332 330 328 325 322 318 312 306 303 297 293 287 280 272 253 328 286 302 228 225 231 205 244 259 258 268 269 262 263 271 282 292 245 194 97 132 135 160 133 223 238 175 195
333 331 329 327 325 323 320 317 312 303 297 292 286 276 262 258 344 224 290 265 239 218 210 209 243 238 252 260 262 275 283 267 265 285 300 208 134 130 183 162 157 144 202 214 217
333 331 328 325 323 320 318 316 311 301 292 286 277 265 250 240 74 242 287 269 224 222 197 219 251 264 281 302 278 288 290 303 294 268 265 279 297 161 177 180 169 105 249 242 242
334 333 331 327 322 320 318 315 308 299 287 276 265 258 258 243 225 217 229 255 223 227 224 238 261 273 285 298 310 301 318 310 272 266 254 225 261 284 178 168 174 181 204 224 225
335 336 334 331 326 321 321 313 305 293 280 259 251 250 268 290 226 217 211 225 226 228 238 258 268 272 275 295 315 297 234 252 271 253 202 171 236 253 181 186 194 190 207 212 217
335 337 335 335 332 325 330 321 302 290 275 257 217 283 257 230 218 220 206 213 212 222 230 245 275 291 310 274 240 253 258 269 255 264 175 194 214 246 262 243 205 210 86 119 122
334 336 336 338 338 333 8 21 349 36 268 234 237 222 286 261 203 206 206 213 219 209 217 238 186 233 225 235 242 267 277 278 282 303 144 195 209 247 273 260 175 96 102 108 111
334 336 336 340 346 16 354 358 14 326 295 269 258 255 259 258 267 200 196 214 223 195 208 255 225 233 242 245 246 256 280 288 308 337 89 200 224 226 277 298 166 107 104 119 132
330 332 336 343 351 352 347 352 337 334 281 282 245 233 232 242 250 216 213 208 209 209 212 216 244 223 245 262 267 265 285 310 294 312 325 140 303 283 293 302 107 105 107 105 120
325 327 335 342 340 322 42 329 350 334 295 267 200 240 221 229 257 223 212 220 218 221 220 232 237 253 241 245 258 263 299 289 289 322 278 131 253 251 242 252 105 103 117 119 123
317 319 325 327 323 308 297 336 330 331 327 167 165 198 190 197 173 211 219 210 216 227 192 234 242 249 250 235 230 235 289 269 279 313 304 301 76 266 253 220 115 104 125 126 128
310 311 305 302 306 328 305 320 324 345 249 278 129 159 166 204 225 224 210 220 223 241 252 245 230 234 242 245 207 266 275 297 313 38 343 255 233 278 269 148 134 120 119 124 129
305 302 293 287 236 308 308 1 0 233 297 265 161 181 211 198 206 220 209 228 199 212 246 266 263 257 251 226 235 173 187 320 340 333 250 265 269 256 284 150 141 131 123 130 138
302 300 282 269 267 236 322 351 234 268 237 313 319 214 193 219 199 211 217 212 217 215 219 233 261 253 246 199 179 202 164 164 210 222 260 275 249 270 118 103 110 121 131 135 139
313 310 286 266 220 205 229 201 206 209 269 3 337 324 267 212 216 197 222 218 211 199 224 235 232 260 230 211 148 247 236 199 199 275 339 240 114 4 119 123 127 132 141 146 147
321 323 307 234 182 166 207 251 237 258 308 352 319 305 313 295 237 201 201 219 222 207 203 244 274 272 277 227 194 179 200 199 339 249 241 271 238 193 143 143 135 138 149 151 149
322 324 348 154 185 191 217 216 266 274 285 280 280 290 304 306 310 324 283 223 211 205 204 213 197 267 282 264 205 180 229 218 150 163 196 228 266 188 171 161 162 164 159 152 152
308 261 145 169 145 219 234 261 266 283 292 289 295 298 276 289 297 307 293 284 262 205 217 207 198 236 257 267 241 173 190 183 149 274 216 161 264 336 158 176 177 174 160 156 159
287 274 213 200 231 237 257 265 268 267 262 275 273 280 283 285 302 280 299 299 303 298 202 208 221 225 276 299 319 217 197 181 173 149 220 142 264 232 221 179 170 162 143 130 140
297 280 227 199 226 260 281 289 291 292 292 287 267 272 280 278 253 270 281 292 306 302 305 186 176 201 221 239 233 221 185 207 159 162 210 209 230 192 78 89 91 106 122 122 120
242 258 303 282 228 269 260 264 285 294 296 293 310 267 261 277 276 260 269 287 294 296 268 146 188 178 220 211 248 261 275 214 213 204 180 229 229 162 164 132 125 131 135 150 163
289 353 333 306 306 306 309 303 295 290 291 298 291 317 334 264 250 262 271 268 268 339 348 304 214 166 221 219 227 253 270 265 221 261 209 198 204 169 132 128 139 151 159 166 176
339 313 316 296 297 301 274 283 289 283 295 313 331 327 305 303 329 301 278 268 253 301 303 303 329 144 237 221 217 246 234 252 220 215 220 214 164 130 137 138 151 160 164 174 166